• In Belgium
  • List of Countries
  • For 7 days
  • Water Temperature
  • Satellite Maps
  • Weather Map
  • Weather Widgets
  • user-avatar
    Login

    Hourly Weather Yeghegnadzor

    Today, 21 October, Sunday

    Time Temperature Precipitation Wind Pressure Humidity
    00:00 +14°C° 0 mm 1 mps 653 mmHg 57%
    01:00 +13°C° 0 mm 1 mps 653 mmHg 59%
    02:00 +13°C° 0 mm 1 mps 653 mmHg 60%
    03:00 +13°C° 0 mm 1 mps 653 mmHg 62%
    04:00 +12°C° 0 mm 1 mps 653 mmHg 63%
    05:00 +12°C° 0 mm 1 mps 653 mmHg 65%
    06:00 +12°C° 0 mm 1 mps 653 mmHg 66%
    07:00 +13°C° 0 mm 1 mps 653 mmHg 60%
    08:00 +15°C° 0 mm 1 mps 654 mmHg 55%
    09:00 +18°C° 0 mm 1 mps 655 mmHg 49%
    10:00 +18°C° 0 mm 2 mps 655 mmHg 46%
    11:00 +19°C° 0 mm 2 mps 655 mmHg 43%
    12:00 +19°C° 0 mm 2 mps 655 mmHg 40%
    13:00 +20°C° 0 mm 2 mps 655 mmHg 39%
    14:00 +20°C° 0 mm 2 mps 654 mmHg 38%
    15:00 +20°C° 0 mm 2 mps 654 mmHg 38%
    16:00 +18°C° 0 mm 2 mps 654 mmHg 42%
    17:00 +17°C° 0 mm 2 mps 653 mmHg 47%
    18:00 +15°C° 0 mm 1 mps 653 mmHg 51%
    19:00 +15°C° 0 mm 1 mps 653 mmHg 50%
    20:00 +15°C° 0 mm 1 mps 654 mmHg 50%
    21:00 +15°C° 0 mm 1 mps 654 mmHg 49%
    22:00 +14°C° 0 mm 1 mps 654 mmHg 49%
    23:00 +14°C° 0 mm 1 mps 653 mmHg 49%

    Tomorrow, 22 October, Monday

    Time Temperature Precipitation Wind Pressure Humidity
    00:00 +14°C° 0 mm 1 mps 653 mmHg 49%
    01:00 +13°C° 0 mm 1 mps 653 mmHg 50%
    02:00 +13°C° 0 mm 1 mps 653 mmHg 51%
    03:00 +13°C° 0 mm 1 mps 653 mmHg 53%
    04:00 +13°C° 0 mm 1 mps 653 mmHg 56%
    05:00 +12°C° 0 mm 2 mps 653 mmHg 59%
    06:00 +12°C° 0 mm 2 mps 653 mmHg 62%
    07:00 +14°C° 0 mm 2 mps 654 mmHg 58%
    08:00 +15°C° 0 mm 2 mps 655 mmHg 54%
    09:00 +17°C° 0 mm 2 mps 655 mmHg 51%
    10:00 +18°C° 0.1 mm 2 mps 655 mmHg 48%
    11:00 +19°C° 0.1 mm 2 mps 655 mmHg 45%
    12:00 +19°C° 0.1 mm 2 mps 655 mmHg 43%
    13:00 +20°C° 0 mm 2 mps 655 mmHg 42%
    14:00 +20°C° 0 mm 2 mps 655 mmHg 42%
    15:00 +20°C° 0 mm 2 mps 654 mmHg 41%
    16:00 +18°C° 0 mm 2 mps 654 mmHg 46%
    17:00 +18°C° 0 mm 1 mps 654 mmHg 51%
    18:00 +15°C° 0 mm 1 mps 654 mmHg 56%
    19:00 +15°C° 0 mm 1 mps 654 mmHg 57%
    20:00 +15°C° 0 mm 1 mps 654 mmHg 57%
    21:00 +14°C° 0 mm 1 mps 654 mmHg 58%
    22:00 +14°C° 0 mm 1 mps 654 mmHg 59%
    23:00 +14°C° 0 mm 1 mps 654 mmHg 59%

    Day after tomorrow, 23 October, Tuesday

    Time Temperature Precipitation Wind Pressure Humidity
    00:00 +13°C° 0 mm 1 mps 654 mmHg 59%
    01:00 +13°C° 0 mm 1 mps 654 mmHg 61%
    02:00 +13°C° 0 mm 1 mps 654 mmHg 63%
    03:00 +13°C° 0 mm 1 mps 654 mmHg 64%
    04:00 +12°C° 0 mm 1 mps 654 mmHg 66%
    05:00 +12°C° 0 mm 1 mps 653 mmHg 68%
    06:00 +12°C° 0 mm 1 mps 653 mmHg 70%
    07:00 +13°C° 0 mm 1 mps 654 mmHg 65%
    08:00 +15°C° 0 mm 2 mps 655 mmHg 59%
    09:00 +17°C° 0 mm 2 mps 655 mmHg 54%
    10:00 +18°C° 0 mm 2 mps 655 mmHg 50%
    11:00 +18°C° 0 mm 2 mps 655 mmHg 47%
    12:00 +19°C° 0 mm 3 mps 655 mmHg 43%
    13:00 +19°C° 0 mm 3 mps 654 mmHg 42%
    14:00 +19°C° 0 mm 2 mps 654 mmHg 41%
    15:00 +20°C° 0 mm 2 mps 654 mmHg 40%
    16:00 +18°C° 0 mm 2 mps 653 mmHg 45%
    17:00 +17°C° 0 mm 2 mps 653 mmHg 50%
    18:00 +15°C° 0 mm 1 mps 653 mmHg 56%
    19:00 +15°C° 0 mm 2 mps 653 mmHg 57%
    20:00 +15°C° 0 mm 2 mps 653 mmHg 58%
    21:00 +14°C° 0 mm 2 mps 653 mmHg 59%
    22:00 +14°C° 0 mm 2 mps 653 mmHg 61%
    23:00 +13°C° 0 mm 2 mps 652 mmHg 63%

    24 October, Wednesday

    Time Temperature Precipitation Wind Pressure Humidity
    00:00 +13°C° 0 mm 2 mps 652 mmHg 65%
    01:00 +13°C° 0 mm 2 mps 652 mmHg 65%
    02:00 +13°C° 0 mm 2 mps 652 mmHg 66%
    03:00 +13°C° 0 mm 2 mps 652 mmHg 66%
    04:00 +13°C° 0 mm 2 mps 652 mmHg 69%
    05:00 +12°C° 0 mm 2 mps 651 mmHg 71%
    06:00 +12°C° 0 mm 2 mps 651 mmHg 73%
    07:00 +13°C° 0 mm 2 mps 652 mmHg 68%
    08:00 +14°C° 0 mm 3 mps 652 mmHg 63%
    09:00 +16°C° 0 mm 3 mps 652 mmHg 57%
    10:00 +17°C° 0 mm 3 mps 652 mmHg 54%
    11:00 +18°C° 0 mm 3 mps 652 mmHg 51%
    12:00 +18°C° 0 mm 3 mps 651 mmHg 49%
    13:00 +18°C° 0.2 mm 3 mps 651 mmHg 51%
    14:00 +18°C° 0.2 mm 3 mps 650 mmHg 53%
    15:00 +18°C° 0.2 mm 3 mps 650 mmHg 55%
    16:00 +17°C° 0.4 mm 3 mps 649 mmHg 59%
    17:00 +16°C° 0.4 mm 3 mps 649 mmHg 62%
    18:00 +14°C° 0.4 mm 3 mps 649 mmHg 65%
    19:00 +14°C° 0.6 mm 3 mps 649 mmHg 66%
    20:00 +14°C° 0.6 mm 3 mps 649 mmHg 67%
    21:00 +14°C° 0.6 mm 3 mps 649 mmHg 69%
    22:00 +14°C° 0.2 mm 3 mps 648 mmHg 70%
    23:00 +13°C° 0.2 mm 3 mps 648 mmHg 71%

    25 October, Thursday

    Time Temperature Precipitation Wind Pressure Humidity
    00:00 +13°C° 0.2 mm 3 mps 648 mmHg 72%
    01:00 +13°C° 0 mm 3 mps 648 mmHg 74%
    02:00 +12°C° 0 mm 3 mps 647 mmHg 77%
    03:00 +11°C° 0 mm 3 mps 647 mmHg 80%
    04:00 +11°C° 0 mm 3 mps 647 mmHg 80%
    05:00 +11°C° 0 mm 3 mps 647 mmHg 80%
    06:00 +11°C° 0 mm 3 mps 647 mmHg 80%
    07:00 +12°C° 0 mm 4 mps 647 mmHg 74%
    08:00 +14°C° 0 mm 5 mps 647 mmHg 67%
    09:00 +15°C° 0 mm 5 mps 647 mmHg 60%
    10:00 +16°C° 0 mm 6 mps 647 mmHg 57%
    11:00 +17°C° 0 mm 6 mps 647 mmHg 54%
    12:00 +18°C° 0 mm 7 mps 647 mmHg 50%
    13:00 +18°C° 0.3 mm 7 mps 646 mmHg 54%
    14:00 +17°C° 0.3 mm 6 mps 646 mmHg 58%
    15:00 +17°C° 0.3 mm 6 mps 645 mmHg 62%
    16:00 +16°C° 0.8 mm 5 mps 645 mmHg 68%
    17:00 +15°C° 0.8 mm 5 mps 645 mmHg 73%
    18:00 +14°C° 0.8 mm 4 mps 645 mmHg 79%
    19:00 +13°C° 0.2 mm 4 mps 645 mmHg 79%
    20:00 +13°C° 0.2 mm 4 mps 645 mmHg 80%
    21:00 +13°C° 0.2 mm 4 mps 645 mmHg 80%
    22:00 +13°C° 1 mm 4 mps 645 mmHg 81%
    23:00 +13°C° 1 mm 4 mps 644 mmHg 81%

    26 October, Friday

    Time Temperature Precipitation Wind Pressure Humidity
    00:00 +13°C° 1 mm 4 mps 644 mmHg 81%
    01:00 +12°C° 0.1 mm 4 mps 644 mmHg 81%
    02:00 +12°C° 0.1 mm 4 mps 644 mmHg 81%
    03:00 +12°C° 0.1 mm 4 mps 644 mmHg 82%
    04:00 +12°C° 0 mm 5 mps 644 mmHg 82%
    05:00 +12°C° 0 mm 5 mps 644 mmHg 82%
    06:00 +10°C° 0 mm 5 mps 644 mmHg 82%
    07:00 +12°C° 0 mm 5 mps 644 mmHg 78%
    08:00 +14°C° 0 mm 6 mps 644 mmHg 74%
    09:00 +15°C° 0 mm 6 mps 645 mmHg 69%
    10:00 +15°C° 0.1 mm 7 mps 645 mmHg 66%
    11:00 +16°C° 0.1 mm 7 mps 645 mmHg 63%
    12:00 +17°C° 0.1 mm 8 mps 645 mmHg 60%
    13:00 +17°C° 0.5 mm 7 mps 645 mmHg 58%
    14:00 +17°C° 0.5 mm 6 mps 645 mmHg 55%
    15:00 +17°C° 0.5 mm 6 mps 645 mmHg 52%
    16:00 +16°C° 0.5 mm 5 mps 646 mmHg 55%
    17:00 +15°C° 0.5 mm 4 mps 646 mmHg 58%
    18:00 +14°C° 0.5 mm 4 mps 646 mmHg 60%
    19:00 +14°C° 0.4 mm 3 mps 647 mmHg 63%
    20:00 +13°C° 0.4 mm 3 mps 647 mmHg 65%
    21:00 +13°C° 0.4 mm 3 mps 648 mmHg 67%
    22:00 +12°C° 0.7 mm 3 mps 648 mmHg 71%
    23:00 +11°C° 0.7 mm 3 mps 648 mmHg 76%
    Show more